User: anonymous   Login
Location: Stara Lesna
(49.1528°N, 20.2911°E)
Time: 19:40:02
(UTC+02:00)
Language:

CREW DRAGON DEMO-1 DEB - Orbit

View from above orbital plane
View from above orbital plane
View from above satellite
View from above satellite

Ground track
Ground track

The orbit data is extracted from the following two-line orbital elements,

1 44064U 19011B   20270.41776858 +.00028155 +00000-0 +25922-3 0  9991
2 44064 051.6333 160.0287 0003787 092.3708 267.7722 15.67414782088733
Epoch (UTC): 26 September 2020 10:01:35
Eccentricity: 0.0003787
inclination: 51.6333°
perigee height: 364 km
apogee height: 369 km
right ascension of ascending node: 160.0287°
argument of perigee: 92.3708°
revolutions per day: 15.67414782
mean anomaly at epoch: 267.7722°
orbit number at epoch: 8873

The dashed part of the orbit path shows where the satellite is in the earth's shadow,  

DLR